SWA4090 KSFO-KSAN

Flight info

Callsign SWA4090
Flight time N/A
Altitude 35000
Route WESLA5 YYUNG LAX COMIX2
Aircraft B738/M-SDE2E3FGHIRWXY/LB1

Departure

Time 2026-05-03 23:49
Airport San Francisco International Airport (KSFO)

Arrival

Time N/A
Airport San Diego International Airport (KSAN)
Time Latitude Longitude Altitude Speed Heading
2026-05-03 23:29 37.61581 -122.38318 16 ft 0 kts 223°
2026-05-03 23:37 37.61588 -122.38306 16 ft 4 kts 252°
2026-05-03 23:37 37.61593 -122.38275 17 ft 3 kts 257°
2026-05-03 23:37 37.61601 -122.38249 18 ft 3 kts 233°
2026-05-03 23:38 37.61615 -122.38229 17 ft 2 kts 193°
2026-05-03 23:38 37.61628 -122.38237 17 ft 3 kts 127°
2026-05-03 23:38 37.61638 -122.38253 18 ft 0 kts 126°
2026-05-03 23:40 37.61635 -122.38247 18 ft 3 kts 117°
2026-05-03 23:40 37.61622 -122.38201 15 ft 8 kts 106°
2026-05-03 23:40 37.61599 -122.38129 14 ft 9 kts 116°
2026-05-03 23:40 37.61581 -122.38052 13 ft 9 kts 86°
2026-05-03 23:41 37.61615 -122.37989 15 ft 9 kts 24°
2026-05-03 23:41 37.61668 -122.37949 16 ft 9 kts 53°
2026-05-03 23:41 37.61676 -122.37875 17 ft 9 kts 94°
2026-05-03 23:41 37.61668 -122.37801 17 ft 8 kts 96°
2026-05-03 23:42 37.61662 -122.37729 17 ft 8 kts 97°
2026-05-03 23:42 37.61655 -122.37660 17 ft 8 kts 97°
2026-05-03 23:42 37.61648 -122.37593 18 ft 8 kts 97°
2026-05-03 23:42 37.61641 -122.37527 18 ft 7 kts 97°
2026-05-03 23:43 37.61635 -122.37464 21 ft 7 kts 97°
2026-05-03 23:43 37.61628 -122.37403 21 ft 7 kts 97°
2026-05-03 23:43 37.61622 -122.37343 25 ft 7 kts 97°
2026-05-03 23:43 37.61616 -122.37284 22 ft 7 kts 98°
2026-05-03 23:44 37.61601 -122.37230 23 ft 7 kts 117°
2026-05-03 23:44 37.61582 -122.37178 22 ft 6 kts 102°
2026-05-03 23:44 37.61561 -122.37129 21 ft 6 kts 122°
2026-05-03 23:44 37.61539 -122.37080 22 ft 6 kts 118°
2026-05-03 23:45 37.61517 -122.37030 22 ft 7 kts 119°
2026-05-03 23:45 37.61483 -122.36957 22 ft 12 kts 124°
2026-05-03 23:45 37.61414 -122.36853 19 ft 18 kts 131°
2026-05-03 23:45 37.61343 -122.36726 19 ft 18 kts 119°
2026-05-03 23:46 37.61287 -122.36592 17 ft 17 kts 117°
2026-05-03 23:46 37.61232 -122.36463 19 ft 16 kts 117°
2026-05-03 23:46 37.61180 -122.36339 19 ft 16 kts 118°
2026-05-03 23:46 37.61131 -122.36221 21 ft 15 kts 118°
2026-05-03 23:47 37.61083 -122.36107 21 ft 14 kts 116°
2026-05-03 23:47 37.61054 -122.35990 21 ft 14 kts 85°
2026-05-03 23:47 37.61109 -122.35900 23 ft 13 kts 30°
2026-05-03 23:47 37.61183 -122.35868 22 ft 6 kts 332°
2026-05-03 23:48 37.61203 -122.35917 21 ft 7 kts 293°
2026-05-03 23:48 37.61228 -122.35978 19 ft 3 kts 298°
2026-05-03 23:48 37.61229 -122.35980 19 ft 0 kts 298°
2026-05-03 23:49 37.61245 -122.36018 18 ft 27 kts 298°
2026-05-03 23:49 37.61477 -122.36566 18 ft 112 kts 297°
2026-05-03 23:49 37.61953 -122.37716 36 ft 181 kts 296°
2026-05-03 23:49 37.62666 -122.39109 923 ft 182 kts 302°
2026-05-03 23:50 37.63206 -122.40425 2352 ft 165 kts 289°
2026-05-03 23:50 37.63537 -122.41324 2813 ft 178 kts 294°
2026-05-03 23:50 37.64402 -122.43377 3191 ft 215 kts 296°
2026-05-03 23:50 37.65155 -122.45107 3509 ft 233 kts 296°
2026-05-03 23:51 37.65957 -122.46932 4073 ft 239 kts 296°
2026-05-03 23:51 37.66703 -122.48788 4727 ft 242 kts 284°
2026-05-03 23:51 37.66769 -122.50915 5251 ft 253 kts 253°
2026-05-03 23:51 37.65902 -122.52865 5843 ft 260 kts 223°
2026-05-03 23:52 37.64354 -122.54050 6546 ft 266 kts 194°
2026-05-03 23:52 37.62524 -122.54097 7416 ft 265 kts 167°
2026-05-03 23:52 37.60760 -122.53382 8164 ft 271 kts 158°
2026-05-03 23:52 37.59010 -122.52469 9059 ft 271 kts 157°
2026-05-03 23:53 37.57262 -122.51546 9871 ft 276 kts 157°
2026-05-03 23:53 37.55461 -122.50627 10470 ft 286 kts 158°
2026-05-03 23:53 37.53525 -122.49668 10652 ft 312 kts 158°
2026-05-03 23:53 37.51458 -122.48659 10909 ft 331 kts 158°
2026-05-03 23:54 37.49237 -122.47757 11463 ft 341 kts 170°
2026-05-03 23:54 37.46856 -122.47748 12210 ft 345 kts 186°
2026-05-03 23:54 37.44469 -122.48169 12966 ft 349 kts 187°
2026-05-03 23:54 37.42050 -122.48647 13657 ft 354 kts 188°
2026-05-03 23:55 37.39605 -122.49138 14314 ft 358 kts 188°
2026-05-03 23:55 37.37134 -122.49625 14988 ft 360 kts 187°
2026-05-03 23:55 37.34651 -122.50105 15668 ft 363 kts 187°
2026-05-03 23:55 37.32177 -122.50575 16317 ft 366 kts 187°
2026-05-03 23:56 37.29654 -122.51048 16961 ft 369 kts 187°
2026-05-03 23:56 37.27093 -122.51525 17614 ft 373 kts 187°
2026-05-03 23:56 37.24517 -122.52003 18249 ft 376 kts 187°
2026-05-03 23:56 37.21920 -122.52484 18802 ft 379 kts 187°
2026-05-03 23:57 37.19302 -122.52969 19337 ft 382 kts 187°
2026-05-03 23:57 37.16655 -122.53458 19872 ft 386 kts 187°
2026-05-03 23:57 37.13986 -122.53952 20409 ft 389 kts 187°
2026-05-03 23:57 37.11301 -122.54448 20919 ft 392 kts 187°
2026-05-03 23:58 37.08628 -122.54942 21425 ft 395 kts 187°
2026-05-03 23:58 37.05894 -122.55446 21932 ft 399 kts 187°
2026-05-03 23:58 37.03139 -122.55935 22414 ft 402 kts 184°
2026-05-03 23:58 37.00351 -122.55718 22855 ft 404 kts 166°
2026-05-03 23:59 36.97727 -122.54451 23345 ft 406 kts 151°
2026-05-03 23:59 36.95268 -122.52683 23785 ft 410 kts 149°
2026-05-03 23:59 36.92814 -122.50841 24145 ft 413 kts 149°
2026-05-03 23:59 36.90345 -122.48971 24527 ft 416 kts 149°
2026-05-04 00:00 36.87861 -122.47098 24907 ft 419 kts 149°
2026-05-04 00:00 36.85353 -122.45223 25277 ft 421 kts 150°
2026-05-04 00:00 36.82853 -122.43370 25601 ft 425 kts 150°
2026-05-04 00:00 36.80302 -122.41490 25950 ft 428 kts 150°
2026-05-04 00:01 36.77726 -122.39599 26280 ft 431 kts 151°
2026-05-04 00:01 36.75131 -122.37699 26602 ft 434 kts 151°
2026-05-04 00:01 36.72512 -122.35784 26917 ft 438 kts 152°
2026-05-04 00:01 36.69876 -122.33858 27230 ft 441 kts 152°
2026-05-04 00:02 36.67219 -122.31919 27529 ft 444 kts 152°
2026-05-04 00:02 36.64548 -122.29971 27826 ft 447 kts 153°
2026-05-04 00:02 36.61857 -122.28010 28122 ft 450 kts 153°
2026-05-04 00:02 36.59184 -122.26062 28410 ft 452 kts 153°
2026-05-04 00:03 36.56464 -122.24083 28689 ft 455 kts 154°
2026-05-04 00:03 36.53720 -122.22087 28961 ft 458 kts 154°
2026-05-04 00:03 36.50965 -122.20085 29229 ft 461 kts 154°
2026-05-04 00:03 36.48189 -122.18069 29485 ft 463 kts 155°
2026-05-04 00:04 36.45399 -122.16045 29765 ft 465 kts 155°
2026-05-04 00:04 36.42602 -122.14017 30108 ft 466 kts 155°
2026-05-04 00:04 36.39806 -122.11990 30454 ft 464 kts 156°
2026-05-04 00:04 36.37019 -122.09971 30784 ft 463 kts 157°
2026-05-04 00:05 36.34275 -122.07986 31069 ft 463 kts 158°
2026-05-04 00:05 36.31488 -122.05972 31340 ft 464 kts 158°
2026-05-04 00:05 36.28700 -122.03960 31640 ft 463 kts 159°
2026-05-04 00:05 36.25918 -122.01953 31954 ft 463 kts 159°
2026-05-04 00:06 36.23133 -121.99946 32235 ft 463 kts 160°
2026-05-04 00:06 36.20350 -121.97942 32510 ft 463 kts 160°
2026-05-04 00:06 36.17569 -121.95941 32805 ft 462 kts 161°
2026-05-04 00:06 36.14789 -121.93941 33104 ft 461 kts 161°
2026-05-04 00:07 36.12012 -121.91946 33380 ft 461 kts 162°
2026-05-04 00:07 36.09278 -121.89983 33650 ft 461 kts 162°
2026-05-04 00:07 36.06506 -121.87995 33934 ft 461 kts 162°
2026-05-04 00:07 36.03739 -121.86011 34200 ft 459 kts 162°
2026-05-04 00:08 36.00991 -121.84006 34474 ft 463 kts 158°
2026-05-04 00:08 35.98503 -121.81310 34637 ft 492 kts 140°
2026-05-04 00:08 35.96375 -121.77962 34848 ft 497 kts 138°
2026-05-04 00:08 35.94294 -121.74544 35031 ft 498 kts 137°
2026-05-04 00:09 35.90109 -121.67663 35020 ft 501 kts 138°
2026-05-04 00:09 35.85921 -121.60916 35016 ft 497 kts 139°
2026-05-04 00:10 35.81696 -121.54213 35020 ft 494 kts 139°
2026-05-04 00:10 35.77478 -121.47556 35016 ft 492 kts 139°
2026-05-04 00:11 35.73269 -121.40919 35015 ft 492 kts 139°
2026-05-04 00:11 35.69057 -121.34284 35028 ft 492 kts 139°
2026-05-04 00:12 35.64861 -121.27686 35029 ft 494 kts 139°
2026-05-04 00:12 35.60616 -121.21021 35029 ft 496 kts 139°
2026-05-04 00:13 35.56351 -121.14336 35032 ft 498 kts 139°
2026-05-04 00:13 35.52069 -121.07636 35029 ft 499 kts 139°
2026-05-04 00:14 35.47917 -121.00820 35032 ft 506 kts 136°
2026-05-04 00:14 35.43872 -120.93730 35019 ft 507 kts 135°
2026-05-04 00:15 35.39830 -120.86643 35014 ft 506 kts 136°
2026-05-04 00:15 35.35775 -120.79632 35015 ft 504 kts 136°
2026-05-04 00:16 35.31702 -120.72650 35002 ft 503 kts 136°
2026-05-04 00:16 35.27663 -120.65747 35001 ft 502 kts 136°
2026-05-04 00:17 35.23598 -120.58810 34998 ft 500 kts 136°
2026-05-04 00:17 35.19550 -120.51910 35004 ft 499 kts 136°
2026-05-04 00:18 35.15504 -120.45028 34991 ft 497 kts 136°
2026-05-04 00:18 35.11471 -120.38178 35016 ft 496 kts 136°
2026-05-04 00:19 35.07473 -120.31405 35016 ft 495 kts 136°
2026-05-04 00:19 35.03448 -120.24601 35012 ft 494 kts 136°
2026-05-04 00:20 34.99412 -120.17793 35023 ft 496 kts 136°
2026-05-04 00:20 34.95362 -120.10974 35006 ft 498 kts 136°
2026-05-04 00:21 34.91318 -120.04176 35002 ft 500 kts 136°
2026-05-04 00:21 34.87230 -119.97315 34995 ft 501 kts 136°
2026-05-04 00:22 34.83133 -119.90448 34982 ft 501 kts 136°
2026-05-04 00:22 34.79034 -119.83593 34983 ft 501 kts 137°
2026-05-04 00:23 34.74929 -119.76746 34977 ft 501 kts 137°
2026-05-04 00:23 34.70779 -119.69945 34987 ft 501 kts 138°
2026-05-04 00:24 34.66674 -119.63161 34974 ft 504 kts 137°
2026-05-04 00:24 34.62538 -119.56272 34996 ft 504 kts 138°
2026-05-04 00:25 34.58392 -119.49387 34989 ft 505 kts 139°
2026-05-04 00:25 34.54231 -119.42508 34985 ft 507 kts 138°
2026-05-04 00:26 34.50051 -119.35614 34968 ft 508 kts 139°
2026-05-04 00:26 34.45881 -119.28733 34996 ft 505 kts 139°
2026-05-04 00:27 34.41742 -119.21936 34996 ft 505 kts 139°
2026-05-04 00:27 34.37565 -119.15090 34991 ft 505 kts 139°
2026-05-04 00:28 34.33384 -119.08249 34997 ft 506 kts 139°
2026-05-04 00:28 34.29188 -119.01398 34989 ft 508 kts 140°
2026-05-04 00:29 34.24984 -118.94539 35014 ft 509 kts 140°
2026-05-04 00:29 34.20782 -118.87703 34827 ft 514 kts 140°
2026-05-04 00:30 34.18635 -118.84223 34263 ft 519 kts 140°
2026-05-04 00:30 34.16486 -118.80727 33707 ft 517 kts 140°
2026-05-04 00:30 34.14357 -118.77257 33231 ft 512 kts 140°
2026-05-04 00:30 34.12248 -118.73823 32774 ft 507 kts 139°
2026-05-04 00:31 34.10154 -118.70421 32326 ft 503 kts 139°
2026-05-04 00:31 34.08075 -118.67053 31930 ft 498 kts 139°
2026-05-04 00:31 34.06011 -118.63717 31486 ft 495 kts 138°
2026-05-04 00:31 34.03962 -118.60409 31080 ft 491 kts 139°
2026-05-04 00:32 34.01928 -118.57127 30655 ft 487 kts 138°
2026-05-04 00:32 33.99900 -118.53855 30238 ft 484 kts 138°
2026-05-04 00:32 33.97903 -118.50629 30013 ft 477 kts 138°
2026-05-04 00:32 33.95946 -118.47456 29969 ft 465 kts 138°
2026-05-04 00:33 33.94057 -118.44407 29603 ft 459 kts 139°
2026-05-04 00:33 33.89937 -118.38605 28264 ft 453 kts 146°
2026-05-04 00:33 33.87757 -118.35880 27787 ft 449 kts 146°
2026-05-04 00:34 33.85596 -118.33180 27346 ft 446 kts 145°
2026-05-04 00:34 33.83469 -118.30479 26918 ft 443 kts 145°
2026-05-04 00:34 33.81376 -118.27782 26482 ft 440 kts 144°
2026-05-04 00:34 33.79303 -118.25098 26068 ft 436 kts 144°
2026-05-04 00:35 33.77245 -118.22432 25655 ft 433 kts 144°
2026-05-04 00:35 33.75226 -118.19795 25333 ft 428 kts 144°
2026-05-04 00:35 33.73245 -118.17196 24940 ft 425 kts 143°
2026-05-04 00:35 33.71259 -118.14586 24550 ft 422 kts 143°
2026-05-04 00:36 33.69282 -118.11988 24097 ft 420 kts 143°
2026-05-04 00:36 33.67319 -118.09410 23687 ft 418 kts 143°
2026-05-04 00:36 33.65360 -118.06838 23231 ft 415 kts 143°
2026-05-04 00:36 33.63420 -118.04293 22795 ft 412 kts 143°
2026-05-04 00:37 33.61492 -118.01761 22400 ft 409 kts 142°
2026-05-04 00:37 33.59581 -117.99254 21988 ft 405 kts 142°
2026-05-04 00:37 33.57688 -117.96775 21589 ft 401 kts 142°
2026-05-04 00:37 33.55808 -117.94322 21197 ft 398 kts 142°
2026-05-04 00:38 33.53920 -117.91925 20835 ft 391 kts 145°
2026-05-04 00:38 33.52010 -117.89699 20469 ft 386 kts 146°
2026-05-04 00:38 33.50068 -117.87501 20095 ft 383 kts 147°
2026-05-04 00:38 33.48147 -117.85314 19710 ft 380 kts 146°
2026-05-04 00:39 33.46242 -117.83122 19331 ft 378 kts 146°
2026-05-04 00:39 33.44357 -117.80942 18942 ft 376 kts 145°
2026-05-04 00:39 33.42459 -117.78801 18561 ft 372 kts 147°
2026-05-04 00:39 33.40533 -117.76745 18146 ft 370 kts 148°
2026-05-04 00:40 33.38603 -117.74716 17737 ft 368 kts 148°
2026-05-04 00:40 33.36691 -117.72702 17335 ft 365 kts 147°
2026-05-04 00:40 33.34801 -117.70700 16934 ft 362 kts 147°
2026-05-04 00:40 33.32924 -117.68700 16550 ft 359 kts 146°
2026-05-04 00:41 33.31092 -117.66744 16178 ft 356 kts 146°
2026-05-04 00:41 33.29255 -117.64779 15807 ft 353 kts 146°
2026-05-04 00:41 33.27432 -117.62836 15440 ft 350 kts 145°
2026-05-04 00:41 33.25623 -117.60913 15082 ft 347 kts 145°
2026-05-04 00:42 33.23848 -117.59027 14991 ft 335 kts 145°
2026-05-04 00:42 33.22137 -117.57223 14962 ft 322 kts 146°
2026-05-04 00:42 33.20491 -117.55491 14850 ft 312 kts 146°
2026-05-04 00:42 33.18831 -117.53754 14179 ft 323 kts 145°
2026-05-04 00:43 33.17134 -117.51974 13693 ft 327 kts 144°
2026-05-04 00:43 33.15430 -117.50181 13386 ft 322 kts 144°
2026-05-04 00:43 33.13784 -117.48453 13320 ft 310 kts 145°
2026-05-04 00:43 33.12128 -117.46939 13112 ft 300 kts 151°
2026-05-04 00:44 33.10424 -117.45557 12845 ft 296 kts 152°
2026-05-04 00:44 33.08714 -117.44177 12521 ft 295 kts 152°
2026-05-04 00:44 33.07024 -117.42793 12184 ft 294 kts 151°
2026-05-04 00:44 33.05350 -117.41412 11873 ft 292 kts 151°
2026-05-04 00:45 33.03685 -117.40022 11552 ft 291 kts 151°
2026-05-04 00:45 33.02034 -117.38639 11234 ft 290 kts 150°
2026-05-04 00:45 33.00390 -117.37259 10915 ft 288 kts 150°
2026-05-04 00:45 32.98755 -117.35884 10607 ft 287 kts 150°
2026-05-04 00:46 32.97129 -117.34517 10314 ft 285 kts 150°
2026-05-04 00:46 32.95533 -117.33178 10034 ft 284 kts 150°
2026-05-04 00:46 32.93921 -117.31830 9731 ft 283 kts 150°
2026-05-04 00:46 32.92313 -117.30488 9395 ft 281 kts 150°
2026-05-04 00:47 32.90717 -117.29153 9078 ft 280 kts 150°
2026-05-04 00:47 32.89126 -117.27828 8801 ft 277 kts 150°
2026-05-04 00:47 32.87581 -117.26541 8737 ft 266 kts 150°
2026-05-04 00:47 32.86093 -117.25303 8671 ft 256 kts 151°
2026-05-04 00:48 32.84654 -117.24111 8625 ft 248 kts 151°
2026-05-04 00:48 32.83258 -117.22955 8527 ft 240 kts 151°
2026-05-04 00:48 32.81919 -117.21828 8390 ft 235 kts 145°
2026-05-04 00:48 32.80955 -117.20230 8108 ft 245 kts 117°
2026-05-04 00:49 32.80447 -117.18334 7836 ft 244 kts 110°
2026-05-04 00:49 32.80033 -117.16377 7501 ft 244 kts 109°